Overview Statistics Trail Chart Weather Telemetry Raw packets
 

This is the latest recevied weather packets stored in our database for station/object N0QWM. If no packets are shown the sender has not sent any weather packets the latest 10 day(s).

<< 31 32 33 34 35 36 37 >>
Time Temp. Humidity Pressure Rain* Wind** Luminosity Snow
1788446073 33.33° C 67% 1022.4 hPa 0 mm - 501 W/m² -
1788445769 32.78° C 67% 1022.4 hPa 0 mm - 477 W/m² -
1788445464 32.78° C 67% 1022.6 hPa 0 mm - 469 W/m² -
1788445161 31.67° C 70% 1022.4 hPa 0 mm - 459 W/m² -
1788444856 31.67° C 69% 1022.5 hPa 0 mm - 435 W/m² -
1788444551 30.56° C 72% 1022.6 hPa 0 mm - 405 W/m² -
1788444241 30.56° C 75% 1022.6 hPa 0 mm - 359 W/m² -
1788443936 30.56° C 74% 1022.4 hPa 0 mm - 329 W/m² -
1788443631 30° C 75% 1022.5 hPa 0 mm - 317 W/m² -
1788443330 29.44° C 78% 1022.5 hPa 0 mm - 292 W/m² -
1788443020 28.89° C 80% 1022.7 hPa 0 mm - 273 W/m² -
1788442717 28.89° C 82% 1022.4 hPa 0 mm - 253 W/m² -
1788442413 27.78° C 83% 1022.9 hPa 0 mm - 209 W/m² -
1788442108 27.78° C 83% 1022.6 hPa 0 mm - 69 W/m² -
1788441804 27.78° C 83% 1022.7 hPa 0 mm - 64 W/m² -
1788441499 27.22° C 85% 1022.9 hPa 0 mm - 65 W/m² -
1788441198 26.67° C 87% 1022.8 hPa 0 mm - 66 W/m² -
1788440892 26.11° C 90% 1022.7 hPa 0 mm - 156 W/m² -
1788440592 25.56° C 91% 1022.6 hPa 0 mm - 66 W/m² -
1788440291 25° C 93% 1022.7 hPa 0 mm - 59 W/m² -
1788439987 25° C 95% 1022.7 hPa 0 mm - 54 W/m² -
1788439686 24.44° C 95% 1022.4 hPa 0 mm - 50 W/m² -
1788439381 24.44° C 96% 1022.3 hPa 0 mm - 46 W/m² -
1788439079 24.44° C 98% 1022.6 hPa 0 mm - 46 W/m² -
1788438779 23.89° C 98% 1022.6 hPa 0 mm - 42 W/m² -

* Rain latest hour (hover to see other rain measurements)
** Current wind speed in m/s (hover to see current wind gust speed)